When you browse on this site, cookies collect data to enhance your experience and personalize the content and advertising you see.
Visit our Privacy Policy to learn more. By continuing to use the site, you agree to this use of cookies and data.
  • En España
  • Lista de países
  • Para 7 días
  • Temperatura del agua
  • Mapa Satelital
  • El tiempo en el mapa
  • Informadores
  • user-avatar
    Iniciar sesión

    Tiempo cada hora Kruhlyky

    Hoy, 19 Junio, Miércoles

    Tiempo Temperatura Precipitaciones Viento Presión Humedad
    00:00 +19°C° 0 mm 1 mps 732 mmHg 90%
    01:00 +18°C° 0 mm 1 mps 732 mmHg 91%
    02:00 +18°C° 0 mm 1 mps 732 mmHg 92%
    03:00 +18°C° 0 mm 1 mps 732 mmHg 93%
    04:00 +18°C° 0 mm 1 mps 732 mmHg 94%
    05:00 +18°C° 0 mm 1 mps 732 mmHg 94%
    06:00 +19°C° 0 mm 2 mps 732 mmHg 90%
    07:00 +20°C° 0 mm 2 mps 732 mmHg 86%
    08:00 +23°C° 0 mm 2 mps 732 mmHg 82%
    09:00 +24°C° 0 mm 2 mps 732 mmHg 79%
    10:00 +25°C° 0 mm 2 mps 732 mmHg 75%
    11:00 +26°C° 0 mm 2 mps 732 mmHg 71%
    12:00 +26°C° 0.6 mm 3 mps 732 mmHg 72%
    13:00 +26°C° 0.6 mm 3 mps 732 mmHg 72%
    14:00 +26°C° 0.6 mm 3 mps 731 mmHg 73%
    15:00 +26°C° 0.8 mm 3 mps 731 mmHg 75%
    16:00 +26°C° 0.8 mm 3 mps 731 mmHg 77%
    17:00 +25°C° 0.8 mm 3 mps 730 mmHg 79%
    18:00 +24°C° 0.2 mm 3 mps 730 mmHg 83%
    19:00 +22°C° 0.2 mm 3 mps 730 mmHg 87%
    20:00 +21°C° 0.2 mm 3 mps 730 mmHg 91%
    21:00 +20°C° 0 mm 3 mps 730 mmHg 92%
    22:00 +20°C° 0 mm 3 mps 730 mmHg 92%
    23:00 +19°C° 0 mm 3 mps 730 mmHg 93%

    Mañana, 20 Junio, Jueves

    Tiempo Temperatura Precipitaciones Viento Presión Humedad
    00:00 +19°C° 0.1 mm 3 mps 730 mmHg 93%
    01:00 +19°C° 0.1 mm 3 mps 730 mmHg 93%
    02:00 +18°C° 0.1 mm 3 mps 730 mmHg 93%
    03:00 +18°C° 0 mm 3 mps 730 mmHg 94%
    04:00 +18°C° 0 mm 2 mps 730 mmHg 94%
    05:00 +18°C° 0 mm 2 mps 730 mmHg 94%
    06:00 +19°C° 0 mm 2 mps 730 mmHg 92%
    07:00 +20°C° 0 mm 3 mps 730 mmHg 90%
    08:00 +21°C° 0 mm 3 mps 730 mmHg 88%
    09:00 +24°C° 0 mm 3 mps 730 mmHg 83%
    10:00 +25°C° 0 mm 3 mps 730 mmHg 79%
    11:00 +26°C° 0 mm 4 mps 730 mmHg 75%
    12:00 +27°C° 0.1 mm 4 mps 730 mmHg 73%
    13:00 +27°C° 0.1 mm 3 mps 730 mmHg 72%
    14:00 +28°C° 0.1 mm 3 mps 730 mmHg 70%
    15:00 +27°C° 0.3 mm 3 mps 729 mmHg 71%
    16:00 +27°C° 0.3 mm 3 mps 729 mmHg 72%
    17:00 +27°C° 0.3 mm 3 mps 729 mmHg 73%
    18:00 +26°C° 0 mm 3 mps 729 mmHg 76%
    19:00 +24°C° 0 mm 2 mps 729 mmHg 80%
    20:00 +23°C° 0 mm 2 mps 729 mmHg 83%
    21:00 +21°C° 0 mm 2 mps 729 mmHg 85%
    22:00 +20°C° 0 mm 3 mps 729 mmHg 87%
    23:00 +20°C° 0 mm 3 mps 729 mmHg 89%

    Pasado mañana, 21 Junio, Viernes

    Tiempo Temperatura Precipitaciones Viento Presión Humedad
    00:00 +19°C° 0 mm 2 mps 729 mmHg 90%
    01:00 +19°C° 0 mm 2 mps 729 mmHg 91%
    02:00 +19°C° 0 mm 2 mps 729 mmHg 93%
    03:00 +19°C° 0 mm 2 mps 730 mmHg 92%
    04:00 +19°C° 0 mm 2 mps 730 mmHg 92%
    05:00 +19°C° 0 mm 2 mps 730 mmHg 92%
    06:00 +20°C° 0 mm 2 mps 730 mmHg 88%
    07:00 +23°C° 0 mm 2 mps 730 mmHg 84%
    08:00 +25°C° 0 mm 2 mps 730 mmHg 81%
    09:00 +26°C° 0 mm 2 mps 730 mmHg 76%
    10:00 +27°C° 0 mm 3 mps 731 mmHg 72%
    11:00 +28°C° 0 mm 3 mps 731 mmHg 67%
    12:00 +28°C° 0 mm 3 mps 730 mmHg 66%
    13:00 +28°C° 0 mm 3 mps 730 mmHg 66%
    14:00 +29°C° 0 mm 3 mps 730 mmHg 65%
    15:00 +28°C° 0.1 mm 3 mps 730 mmHg 67%
    16:00 +28°C° 0.1 mm 3 mps 730 mmHg 69%
    17:00 +28°C° 0.1 mm 3 mps 730 mmHg 72%
    18:00 +26°C° 0.2 mm 3 mps 730 mmHg 77%
    19:00 +25°C° 0.2 mm 2 mps 730 mmHg 82%
    20:00 +23°C° 0.2 mm 2 mps 730 mmHg 87%
    21:00 +23°C° 0 mm 2 mps 730 mmHg 89%
    22:00 +21°C° 0 mm 3 mps 730 mmHg 90%
    23:00 +20°C° 0 mm 3 mps 730 mmHg 91%

    22 Junio, Sábado

    Tiempo Temperatura Precipitaciones Viento Presión Humedad
    00:00 +20°C° 0 mm 2 mps 730 mmHg 91%
    01:00 +20°C° 0 mm 2 mps 730 mmHg 91%
    02:00 +19°C° 0 mm 2 mps 730 mmHg 91%
    03:00 +20°C° 0.1 mm 3 mps 730 mmHg 93%
    04:00 +20°C° 0.1 mm 3 mps 730 mmHg 92%
    05:00 +20°C° 0.1 mm 3 mps 730 mmHg 90%
    06:00 +21°C° 0.1 mm 3 mps 730 mmHg 88%
    07:00 +22°C° 0.1 mm 3 mps 730 mmHg 86%
    08:00 +24°C° 0.1 mm 3 mps 730 mmHg 84%
    09:00 +25°C° 1.8 mm 3 mps 730 mmHg 80%
    10:00 +26°C° 1.8 mm 3 mps 730 mmHg 76%
    11:00 +28°C° 1.8 mm 3 mps 730 mmHg 72%
    12:00 +28°C° 1.5 mm 3 mps 730 mmHg 72%
    13:00 +28°C° 1.5 mm 3 mps 730 mmHg 73%
    14:00 +28°C° 1.5 mm 3 mps 730 mmHg 73%
    15:00 +27°C° 0.7 mm 3 mps 730 mmHg 76%
    16:00 +27°C° 0.7 mm 3 mps 729 mmHg 78%
    17:00 +27°C° 0.7 mm 3 mps 729 mmHg 81%
    18:00 +26°C° 0.6 mm 3 mps 729 mmHg 82%
    19:00 +24°C° 0.6 mm 3 mps 729 mmHg 84%
    20:00 +22°C° 0.6 mm 3 mps 729 mmHg 86%
    21:00 +21°C° 0 mm 3 mps 729 mmHg 86%
    22:00 +21°C° 0 mm 2 mps 729 mmHg 87%
    23:00 +20°C° 0 mm 2 mps 729 mmHg 87%

    23 Junio, Domingo

    Tiempo Temperatura Precipitaciones Viento Presión Humedad
    00:00 +20°C° 0.1 mm 3 mps 729 mmHg 88%
    01:00 +20°C° 0.1 mm 3 mps 729 mmHg 90%
    02:00 +20°C° 0.1 mm 3 mps 729 mmHg 91%
    03:00 +19°C° 0 mm 3 mps 729 mmHg 92%
    04:00 +19°C° 0 mm 3 mps 729 mmHg 93%
    05:00 +19°C° 0 mm 3 mps 729 mmHg 93%
    06:00 +20°C° 0 mm 4 mps 729 mmHg 90%
    07:00 +22°C° 0 mm 4 mps 729 mmHg 86%
    08:00 +23°C° 0 mm 5 mps 730 mmHg 82%
    09:00 +25°C° 0.8 mm 5 mps 730 mmHg 79%
    10:00 +26°C° 0.8 mm 5 mps 730 mmHg 76%
    11:00 +27°C° 0.8 mm 6 mps 730 mmHg 73%
    12:00 +27°C° 0.5 mm 6 mps 730 mmHg 74%
    13:00 +26°C° 0.5 mm 6 mps 730 mmHg 74%
    14:00 +26°C° 0.5 mm 6 mps 729 mmHg 74%
    15:00 +26°C° 0.1 mm 5 mps 729 mmHg 75%
    16:00 +25°C° 0.1 mm 5 mps 729 mmHg 76%
    17:00 +25°C° 0.1 mm 5 mps 729 mmHg 78%
    18:00 +23°C° 0.2 mm 4 mps 729 mmHg 80%
    19:00 +23°C° 0.2 mm 4 mps 729 mmHg 82%
    20:00 +22°C° 0.2 mm 3 mps 729 mmHg 84%
    21:00 +21°C° 1.7 mm 3 mps 729 mmHg 85%
    22:00 +20°C° 1.7 mm 3 mps 729 mmHg 86%
    23:00 +19°C° 1.7 mm 3 mps 729 mmHg 88%

    24 Junio, Lunes

    Tiempo Temperatura Precipitaciones Viento Presión Humedad
    00:00 +18°C° 0.2 mm 3 mps 729 mmHg 89%
    01:00 +18°C° 0.2 mm 3 mps 729 mmHg 91%
    02:00 +18°C° 0.2 mm 3 mps 729 mmHg 93%
    03:00 +18°C° 0.4 mm 3 mps 730 mmHg 94%
    04:00 +18°C° 0.4 mm 3 mps 730 mmHg 96%
    05:00 +17°C° 0.4 mm 3 mps 730 mmHg 97%
    06:00 +17°C° 0.4 mm 3 mps 730 mmHg 96%
    07:00 +17°C° 0.4 mm 4 mps 730 mmHg 96%
    08:00 +17°C° 0.4 mm 4 mps 730 mmHg 95%
    09:00 +18°C° 0.2 mm 3 mps 731 mmHg 92%
    10:00 +19°C° 0.2 mm 3 mps 731 mmHg 90%
    11:00 +20°C° 0.2 mm 3 mps 731 mmHg 87%
    12:00 +20°C° 0 mm 3 mps 731 mmHg 84%
    13:00 +21°C° 0 mm 3 mps 731 mmHg 81%
    14:00 +22°C° 0 mm 3 mps 731 mmHg 78%
    15:00 +22°C° 0.2 mm 3 mps 731 mmHg 79%
    16:00 +22°C° 0.2 mm 4 mps 731 mmHg 81%
    17:00 +22°C° 0.2 mm 4 mps 731 mmHg 83%
    18:00 +21°C° 0.2 mm 5 mps 732 mmHg 86%
    19:00 +19°C° 0.2 mm 5 mps 732 mmHg 90%
    20:00 +17°C° 0.2 mm 5 mps 732 mmHg 94%
    21:00 +17°C° 0 mm 5 mps 732 mmHg 94%
    22:00 +17°C° 0 mm 5 mps 732 mmHg 94%
    23:00 +16°C° 0 mm 5 mps 733 mmHg 94%
    Mostrar más